This is the latest recevied weather packets stored in our database for station/object VE6HFD-WX. If no packets are shown the sender has not sent any weather packets the latest 10 day(s).
| Time | Temp. | Humidity | Pressure | Rain* | Wind** | Luminosity | Snow |
|---|---|---|---|---|---|---|---|
| 1777604289 | 13.33° C | 47% | 1013.9 hPa | 0 mm | - | - | - |
| 1777603959 | 14.44° C | 43% | 1013.9 hPa | 0 mm | - | - | - |
| 1777603659 | 14.44° C | 41% | 1013.9 hPa | 0 mm | - | - | - |
| 1777603329 | 14.44° C | 42% | 1014 hPa | 0 mm | - | - | - |
| 1777603029 | 15° C | 41% | 1014 hPa | 0 mm | - | - | - |
| 1777602729 | 15.56° C | 37% | 1014 hPa | 0 mm | - | - | - |
| 1777602399 | 16.11° C | 34% | 1014 hPa | 0 mm | - | - | - |
| 1777602099 | 16.11° C | 36% | 1014 hPa | 0 mm | - | - | - |
| 1777601799 | 16.11° C | 36% | 1014 hPa | 0 mm | - | - | - |
| 1777601469 | 17.22° C | 36% | 1014.1 hPa | 0 mm | - | - | - |
| 1777601169 | 17.22° C | 36% | 1014.1 hPa | 0 mm | - | - | - |
| 1777600839 | 17.78° C | 30% | 1014.2 hPa | 0 mm | - | - | - |
| 1777600509 | 17.78° C | 30% | 1014.2 hPa | 0 mm | - | - | - |
| 1777600179 | 17.78° C | 29% | 1014.2 hPa | 0 mm | - | - | - |
| 1777599849 | 18.33° C | 29% | 1014.2 hPa | 0 mm | - | - | - |
| 1777599519 | 18.33° C | 27% | 1014.3 hPa | 0 mm | - | - | - |
| 1777599219 | 18.33° C | 28% | 1014.3 hPa | 0 mm | - | - | - |
| 1777598889 | 18.89° C | 26% | 1014.4 hPa | 0 mm | - | - | - |
| 1777598559 | 18.89° C | 26% | 1014.4 hPa | 0 mm | - | - | - |
| 1777598229 | 19.44° C | 26% | 1014.5 hPa | 0 mm | - | - | - |
| 1777597929 | 19.44° C | 25% | 1014.5 hPa | 0 mm | - | - | - |
| 1777597629 | 20° C | 25% | 1014.6 hPa | 0 mm | - | - | - |
| 1777597299 | 20.56° C | 24% | 1014.7 hPa | 0 mm | - | - | - |
| 1777596969 | 20.56° C | 24% | 1014.7 hPa | 0 mm | - | - | - |
| 1777596669 | 21.11° C | 24% | 1014.7 hPa | 0 mm | - | - | - |
* Rain latest hour (hover to see other rain measurements)
** Current wind speed in m/s (hover to see current wind gust speed)